Погода в Сьоне

Швейцария     46°13′46″N   7°21′52″E
темп.,
°C
ветер,
м/с
пор.,
м/с
влажн.,
%
обл.,
%
осадки,
мм/ч
давл.,
гПа
погр.,
м
13 августа, сб
сб1323:00+12всв11720 0.0 101612
02:00+11в11720 0.0 101611
05:00+10в22770 0.0 101512
08:00+13всв11710 0.0 101580
11:00+20з11440 0.0 1013966
14:00+23сз22280 0.0 10122266
17:00+22сз32310 0.0 10131914
20:00+17ссз11540 0.0 101311
14 августа, вс
вс1423:00+12вюв1163100 0.0 101612
02:00+11всв226586 0.0 101623
05:00+10всв3266100 0.0 101428
08:00+13всв226187 0.0 101362
11:00+21св1133100 0.0 1010605
14:00+24зсз3327100 0.0 10082494
17:00+20ссз3347100 0.0 1008898
20:00+13зсз3395100 5.4 1011129
15 августа, пн
пн1523:00+11в229642 10.5 101380
02:00+9в229287 10.7 101315
05:00+9в22924 0.0 101217
08:00+11в12870 0.0 101173
11:00+19юз124732 0.0 1009824
14:00+22зсз252827 0.0 10072999
17:00+22сз353452 0.0 10072829
20:00+16ссз226492 0.1 100920
16 августа, вт
вт1623:00+11в117812 0.0 101211
02:00+11в22785 0.0 101317
05:00+10всв22770 0.0 101324
08:00+13всв22720 0.0 101374
11:00+20ссв11461 0.0 1012938
14:00+24ссв013628 0.1 10102159
17:00+19юв0157100 0.1 1011139
20:00+16всв227336 0.5 101223
17 августа, ср
ср1723:00+13в228016 0.1 101429
02:00+12всв228497 0.1 101533
05:00+11всв2284100 0.1 101424
08:00+13всв2280100 0.1 101477
11:00+20с125215 0.1 10121048
14:00+22с2245100 0.6 10112007
17:00+18с2367100 2.8 1010153
20:00+14зсз2287100 6.8 101135